PRIVATE WETTERSTATION BILLIGHEIM-ALLFELD                       ZURCK
Wetterdaten: Sonntag, 23.03.2014
Datum Zeit Temp. A. Temp. A. min Temp. A. max Feuchte A. Luftdruck Regen Wind Richtung Richtung Sonnenschein ET Solar Taupunkt Windchill Windben Empfang
23.03.2014 00:00 5,9 C 5,9 C 5,9 C 87 % 1006,1 hPa 0,0 l/m 9,7 km/h (2 Bft) W-SW 247 0 min 0,025 mm 0 W/m 3,9 C 3,3 C 20,9 km/h (4 Bft) 100 %
23.03.2014 00:10 5,9 C 5,9 C 5,9 C 87 % 1006,0 hPa 0,0 l/m 4,8 km/h (1 Bft) W-NW 292 0 min 0,000 mm 0 W/m 3,9 C 5,9 C 16,1 km/h (3 Bft) 100 %
23.03.2014 00:20 5,8 C 5,8 C 5,9 C 87 % 1006,0 hPa 0,0 l/m 8,0 km/h (2 Bft) W-SW 247 0 min 0,000 mm 0 W/m 3,8 C 4,4 C 17,7 km/h (3 Bft) 100 %
23.03.2014 00:30 5,8 C 5,8 C 5,8 C 86 % 1006,1 hPa 0,0 l/m 8,0 km/h (2 Bft) W 270 0 min 0,000 mm 0 W/m 3,6 C 4,4 C 20,9 km/h (4 Bft) 100 %
23.03.2014 00:40 5,8 C 5,8 C 5,8 C 86 % 1005,9 hPa 0,0 l/m 8,0 km/h (2 Bft) W 270 0 min 0,000 mm 0 W/m 3,6 C 4,4 C 19,3 km/h (3 Bft) 100 %
23.03.2014 00:50 5,8 C 5,8 C 5,8 C 86 % 1005,8 hPa 0,0 l/m 4,8 km/h (1 Bft) W 270 0 min 0,000 mm 0 W/m 3,6 C 5,8 C 17,7 km/h (3 Bft) 100 %
23.03.2014 01:00 5,8 C 5,8 C 5,8 C 87 % 1005,9 hPa 0,0 l/m 3,2 km/h (1 Bft) W-NW 292 0 min 0,025 mm 0 W/m 3,8 C 5,8 C 9,7 km/h (2 Bft) 100 %
23.03.2014 01:10 5,7 C 5,7 C 5,8 C 87 % 1005,9 hPa 0,0 l/m 0,0 km/h (0 Bft) NW 315 0 min 0,000 mm 0 W/m 3,7 C 5,7 C 4,8 km/h (1 Bft) 100 %
23.03.2014 01:20 5,7 C 5,7 C 5,7 C 87 % 1006,2 hPa 0,0 l/m 0,0 km/h (0 Bft) W-NW 292 0 min 0,000 mm 0 W/m 3,7 C 5,7 C 4,8 km/h (1 Bft) 100 %
23.03.2014 01:30 5,6 C 5,6 C 5,7 C 87 % 1006,2 hPa 0,0 l/m 0,0 km/h (0 Bft) W-NW 292 0 min 0,000 mm 0 W/m 3,6 C 5,6 C 1,6 km/h (1 Bft) 100 %
23.03.2014 01:40 5,6 C 5,6 C 5,6 C 87 % 1006,2 hPa 0,0 l/m 0,0 km/h (0 Bft) W-NW 292 0 min 0,000 mm 0 W/m 3,6 C 5,6 C 1,6 km/h (1 Bft) 100 %
23.03.2014 01:50 5,4 C 5,4 C 5,6 C 87 % 1006,0 hPa 0,0 l/m 0,0 km/h (0 Bft) SW 225 0 min 0,000 mm 0 W/m 3,4 C 5,4 C 4,8 km/h (1 Bft) 100 %
23.03.2014 02:00 5,2 C 5,2 C 5,4 C 87 % 1006,1 hPa 0,0 l/m 1,6 km/h (1 Bft) S-SO 157 0 min 0,000 mm 0 W/m 3,2 C 5,2 C 8,0 km/h (2 Bft) 100 %
23.03.2014 02:10 5,1 C 5,1 C 5,2 C 88 % 1006,1 hPa 0,0 l/m 1,6 km/h (1 Bft) S-SO 157 0 min 0,000 mm 0 W/m 3,3 C 5,1 C 4,8 km/h (1 Bft) 91 %
23.03.2014 02:20 5,1 C 5,1 C 5,1 C 87 % 1006,1 hPa 0,0 l/m 0,0 km/h (0 Bft) S-SO 157 0 min 0,000 mm 0 W/m 3,1 C 5,1 C 1,6 km/h (1 Bft) 100 %
23.03.2014 02:30 5,1 C 5,1 C 5,2 C 87 % 1005,9 hPa 0,0 l/m 0,0 km/h (0 Bft) S-SO 157 0 min 0,000 mm 0 W/m 3,1 C 5,1 C 3,2 km/h (1 Bft) 100 %
23.03.2014 02:40 5,2 C 5,1 C 5,2 C 88 % 1005,9 hPa 0,0 l/m 0,0 km/h (0 Bft) S-SO 157 0 min 0,000 mm 0 W/m 3,4 C 5,2 C 4,8 km/h (1 Bft) 100 %
23.03.2014 02:50 5,2 C 5,2 C 5,2 C 88 % 1005,9 hPa 0,0 l/m 0,0 km/h (0 Bft) S-SO 157 0 min 0,000 mm 0 W/m 3,4 C 5,2 C 1,6 km/h (1 Bft) 100 %
23.03.2014 03:00 5,2 C 5,2 C 5,2 C 88 % 1006,0 hPa 0,0 l/m 0,0 km/h (0 Bft) S-SO 157 0 min 0,000 mm 0 W/m 3,4 C 5,2 C 3,2 km/h (1 Bft) 100 %
23.03.2014 03:10 5,1 C 5,1 C 5,2 C 88 % 1005,9 hPa 0,0 l/m 0,0 km/h (0 Bft) S-SO 157 0 min 0,000 mm 0 W/m 3,3 C 5,1 C 3,2 km/h (1 Bft) 100 %
23.03.2014 03:20 5,1 C 5,1 C 5,1 C 88 % 1005,9 hPa 0,0 l/m 0,0 km/h (0 Bft) S-SO 157 0 min 0,000 mm 0 W/m 3,3 C 5,1 C 4,8 km/h (1 Bft) 100 %
23.03.2014 03:30 5,1 C 5,1 C 5,1 C 88 % 1005,9 hPa 0,0 l/m 1,6 km/h (1 Bft) S-SW 202 0 min 0,000 mm 0 W/m 3,3 C 5,1 C 6,4 km/h (2 Bft) 100 %
23.03.2014 03:40 5,0 C 5,0 C 5,1 C 88 % 1005,8 hPa 0,0 l/m 1,6 km/h (1 Bft) S-SW 202 0 min 0,000 mm 0 W/m 3,2 C 5,0 C 4,8 km/h (1 Bft) 100 %
23.03.2014 03:50 5,0 C 5,0 C 5,1 C 87 % 1005,8 hPa 0,0 l/m 0,0 km/h (0 Bft) S-SO 157 0 min 0,000 mm 0 W/m 3,0 C 5,0 C 4,8 km/h (1 Bft) 100 %
23.03.2014 04:00 5,0 C 5,0 C 5,0 C 87 % 1005,8 hPa 0,0 l/m 0,0 km/h (0 Bft) S 180 0 min 0,000 mm 0 W/m 3,0 C 5,0 C 3,2 km/h (1 Bft) 100 %
23.03.2014 04:10 5,0 C 5,0 C 5,0 C 87 % 1005,7 hPa 0,0 l/m 0,0 km/h (0 Bft) S 180 0 min 0,000 mm 0 W/m 3,0 C 5,0 C 4,8 km/h (1 Bft) 98 %
23.03.2014 04:20 5,0 C 5,0 C 5,0 C 87 % 1005,7 hPa 0,0 l/m 0,0 km/h (0 Bft) N 0 0 min 0,000 mm 0 W/m 3,0 C 5,0 C 0,0 km/h (0 Bft) 92 %
23.03.2014 04:30 5,0 C 4,9 C 5,0 C 87 % 1005,7 hPa 0,0 l/m 0,0 km/h (0 Bft) S 180 0 min 0,000 mm 0 W/m 3,0 C 5,0 C 4,8 km/h (1 Bft) 100 %
23.03.2014 04:40 4,9 C 4,9 C 5,0 C 88 % 1005,7 hPa 0,0 l/m 1,6 km/h (1 Bft) S 180 0 min 0,000 mm 0 W/m 3,1 C 4,9 C 4,8 km/h (1 Bft) 100 %
23.03.2014 04:50 5,0 C 4,9 C 5,0 C 88 % 1005,9 hPa 0,0 l/m 0,0 km/h (0 Bft) S-SO 157 0 min 0,000 mm 0 W/m 3,2 C 5,0 C 4,8 km/h (1 Bft) 100 %
23.03.2014 05:00 5,0 C 5,0 C 5,0 C 87 % 1005,9 hPa 0,0 l/m 0,0 km/h (0 Bft) S 180 0 min 0,000 mm 0 W/m 3,0 C 5,0 C 1,6 km/h (1 Bft) 100 %
23.03.2014 05:10 5,1 C 5,0 C 5,1 C 88 % 1005,8 hPa 0,0 l/m 0,0 km/h (0 Bft) S 180 0 min 0,000 mm 0 W/m 3,3 C 5,1 C 4,8 km/h (1 Bft) 100 %
23.03.2014 05:20 5,1 C 5,0 C 5,1 C 87 % 1005,8 hPa 0,0 l/m 3,2 km/h (1 Bft) S-SW 202 0 min 0,000 mm 0 W/m 3,1 C 5,1 C 6,4 km/h (2 Bft) 100 %
23.03.2014 05:30 5,1 C 5,0 C 5,1 C 87 % 1005,6 hPa 0,0 l/m 0,0 km/h (0 Bft) S-SW 202 0 min 0,000 mm 0 W/m 3,1 C 5,1 C 6,4 km/h (2 Bft) 100 %
23.03.2014 05:40 5,0 C 5,0 C 5,1 C 87 % 1005,6 hPa 0,0 l/m 0,0 km/h (0 Bft) S-SW 202 0 min 0,000 mm 0 W/m 3,0 C 5,0 C 3,2 km/h (1 Bft) 100 %
23.03.2014 05:50 4,9 C 4,9 C 5,1 C 87 % 1005,8 hPa 0,0 l/m 1,6 km/h (1 Bft) S-SW 202 0 min 0,000 mm 0 W/m 2,9 C 4,9 C 6,4 km/h (2 Bft) 100 %
23.03.2014 06:00 4,8 C 4,8 C 4,9 C 88 % 1005,8 hPa 0,0 l/m 1,6 km/h (1 Bft) S-SW 202 0 min 0,000 mm 0 W/m 3,0 C 4,8 C 4,8 km/h (1 Bft) 100 %
23.03.2014 06:10 4,7 C 4,7 C 4,8 C 88 % 1005,9 hPa 0,0 l/m 1,6 km/h (1 Bft) S-SW 202 0 min 0,000 mm 0 W/m 2,9 C 4,7 C 4,8 km/h (1 Bft) 100 %
23.03.2014 06:20 4,7 C 4,7 C 4,7 C 88 % 1005,8 hPa 0,0 l/m 1,6 km/h (1 Bft) SW 225 0 min 0,000 mm 0 W/m 2,9 C 4,7 C 8,0 km/h (2 Bft) 100 %
23.03.2014 06:30 4,7 C 4,7 C 4,7 C 88 % 1006,1 hPa 0,0 l/m 0,0 km/h (0 Bft) S-SW 202 0 min 0,000 mm 0 W/m 2,9 C 4,7 C 6,4 km/h (2 Bft) 99 %
23.03.2014 06:40 4,7 C 4,7 C 4,7 C 88 % 1006,2 hPa 0,0 l/m 0,0 km/h (0 Bft) S-SW 202 0 min 0,000 mm 0 W/m 2,9 C 4,7 C 6,4 km/h (2 Bft) 100 %
23.03.2014 06:50 4,6 C 4,6 C 4,7 C 88 % 1006,2 hPa 0,0 l/m 0,0 km/h (0 Bft) S-SW 202 0 min 0,000 mm 0 W/m 2,8 C 4,6 C 4,8 km/h (1 Bft) 100 %
23.03.2014 07:00 4,6 C 4,6 C 4,6 C 88 % 1006,0 hPa 0,0 l/m 0,0 km/h (0 Bft) S-SW 202 0 min 0,000 mm 0 W/m 2,8 C 4,6 C 4,8 km/h (1 Bft) 100 %
23.03.2014 07:10 4,5 C 4,5 C 4,6 C 88 % 1006,1 hPa 0,0 l/m 0,0 km/h (0 Bft) S-SW 202 0 min 0,000 mm 0 W/m 2,7 C 4,5 C 4,8 km/h (1 Bft) 100 %
23.03.2014 07:20 4,6 C 4,5 C 4,6 C 88 % 1006,1 hPa 0,0 l/m 0,0 km/h (0 Bft) SW 225 0 min 0,000 mm 0 W/m 2,8 C 4,6 C 3,2 km/h (1 Bft) 100 %
23.03.2014 07:30 4,6 C 4,5 C 4,6 C 88 % 1006,3 hPa 0,0 l/m 0,0 km/h (0 Bft) SW 225 0 min 0,000 mm 0 W/m 2,8 C 4,6 C 1,6 km/h (1 Bft) 100 %
23.03.2014 07:40 4,7 C 4,6 C 4,7 C 88 % 1006,3 hPa 0,0 l/m 0,0 km/h (0 Bft) SW 225 0 min 0,000 mm 11 W/m 2,9 C 4,7 C 1,6 km/h (1 Bft) 100 %
23.03.2014 07:50 4,7 C 4,7 C 4,7 C 88 % 1006,4 hPa 0,0 l/m 0,0 km/h (0 Bft) SW 225 0 min 0,000 mm 11 W/m 2,9 C 4,7 C 3,2 km/h (1 Bft) 100 %
23.03.2014 08:00 4,8 C 4,7 C 4,8 C 88 % 1006,5 hPa 0,0 l/m 0,0 km/h (0 Bft) W-SW 247 0 min 0,000 mm 28 W/m 3,0 C 4,8 C 3,2 km/h (1 Bft) 100 %
23.03.2014 08:10 4,9 C 4,8 C 4,9 C 88 % 1006,4 hPa 0,0 l/m 1,6 km/h (1 Bft) W 270 0 min 0,000 mm 44 W/m 3,1 C 4,9 C 8,0 km/h (2 Bft) 100 %
23.03.2014 08:20 4,9 C 4,9 C 5,0 C 88 % 1006,6 hPa 0,0 l/m 3,2 km/h (1 Bft) W 270 0 min 0,000 mm 53 W/m 3,1 C 4,9 C 11,3 km/h (2 Bft) 90 %
23.03.2014 08:30 5,1 C 4,9 C 5,1 C 88 % 1006,6 hPa 0,0 l/m 4,8 km/h (1 Bft) W 270 0 min 0,000 mm 60 W/m 3,3 C 5,1 C 16,1 km/h (3 Bft) 100 %
23.03.2014 08:40 5,1 C 5,1 C 5,1 C 88 % 1006,7 hPa 0,0 l/m 4,8 km/h (1 Bft) W-NW 292 0 min 0,000 mm 70 W/m 3,3 C 5,1 C 14,5 km/h (3 Bft) 100 %
23.03.2014 08:50 5,2 C 5,1 C 5,2 C 87 % 1006,6 hPa 0,0 l/m 4,8 km/h (1 Bft) W 270 0 min 0,000 mm 83 W/m 3,2 C 5,2 C 14,5 km/h (3 Bft) 100 %
23.03.2014 09:00 5,3 C 5,2 C 5,3 C 87 % 1006,5 hPa 0,0 l/m 1,6 km/h (1 Bft) W-NW 292 0 min 0,025 mm 81 W/m 3,3 C 5,3 C 9,7 km/h (2 Bft) 100 %
23.03.2014 09:10 5,4 C 5,3 C 5,4 C 87 % 1006,5 hPa 0,0 l/m 4,8 km/h (1 Bft) W 270 0 min 0,000 mm 100 W/m 3,4 C 5,4 C 12,9 km/h (3 Bft) 100 %
23.03.2014 09:20 5,4 C 5,3 C 5,4 C 86 % 1006,7 hPa 0,0 l/m 6,4 km/h (2 Bft) W 270 0 min 0,000 mm 125 W/m 3,3 C 5,4 C 16,1 km/h (3 Bft) 100 %
23.03.2014 09:30 5,5 C 5,4 C 5,5 C 85 % 1006,7 hPa 0,0 l/m 3,2 km/h (1 Bft) W 270 0 min 0,000 mm 132 W/m 3,2 C 5,5 C 11,3 km/h (2 Bft) 100 %
23.03.2014 09:40 5,6 C 5,5 C 5,6 C 85 % 1006,8 hPa 0,0 l/m 4,8 km/h (1 Bft) W 270 0 min 0,000 mm 137 W/m 3,3 C 5,6 C 16,1 km/h (3 Bft) 100 %
23.03.2014 09:50 5,7 C 5,6 C 5,7 C 84 % 1006,7 hPa 0,0 l/m 3,2 km/h (1 Bft) W 270 0 min 0,000 mm 151 W/m 3,2 C 5,7 C 11,3 km/h (2 Bft) 100 %
23.03.2014 10:00 5,8 C 5,7 C 5,8 C 83 % 1006,6 hPa 0,0 l/m 3,2 km/h (1 Bft) W 270 10 min 0,051 mm 171 W/m 3,1 C 5,8 C 9,7 km/h (2 Bft) 100 %
23.03.2014 10:10 6,0 C 5,8 C 6,0 C 83 % 1006,6 hPa 0,0 l/m 1,6 km/h (1 Bft) W-NW 292 10 min 0,000 mm 188 W/m 3,3 C 6,0 C 9,7 km/h (2 Bft) 100 %
23.03.2014 10:20 6,2 C 6,0 C 6,2 C 81 % 1006,6 hPa 0,0 l/m 3,2 km/h (1 Bft) W 270 10 min 0,000 mm 223 W/m 3,2 C 6,2 C 11,3 km/h (2 Bft) 100 %
23.03.2014 10:30 6,4 C 6,2 C 6,4 C 81 % 1006,6 hPa 0,0 l/m 3,2 km/h (1 Bft) W-NW 292 10 min 0,000 mm 220 W/m 3,4 C 6,4 C 11,3 km/h (2 Bft) 100 %
23.03.2014 10:40 6,6 C 6,4 C 6,6 C 79 % 1006,7 hPa 0,0 l/m 1,6 km/h (1 Bft) W-NW 292 10 min 0,000 mm 223 W/m 3,2 C 6,6 C 11,3 km/h (2 Bft) 99 %
23.03.2014 10:50 6,7 C 6,6 C 6,7 C 79 % 1006,8 hPa 0,0 l/m 1,6 km/h (1 Bft) W 270 10 min 0,000 mm 200 W/m 3,3 C 6,7 C 8,0 km/h (2 Bft) 100 %
23.03.2014 11:00 6,8 C 6,7 C 6,8 C 79 % 1006,7 hPa 0,0 l/m 1,6 km/h (1 Bft) W 270 10 min 0,076 mm 179 W/m 3,4 C 6,8 C 9,7 km/h (2 Bft) 100 %
23.03.2014 11:10 6,8 C 6,8 C 6,8 C 78 % 1006,8 hPa 0,0 l/m 3,2 km/h (1 Bft) W-SW 247 10 min 0,000 mm 199 W/m 3,2 C 6,8 C 16,1 km/h (3 Bft) 100 %
23.03.2014 11:20 6,7 C 6,7 C 6,8 C 77 % 1006,8 hPa 0,0 l/m 4,8 km/h (1 Bft) SW 225 10 min 0,000 mm 258 W/m 3,0 C 6,7 C 11,3 km/h (2 Bft) 100 %
23.03.2014 11:30 6,9 C 6,7 C 6,9 C 78 % 1006,8 hPa 0,0 l/m 4,8 km/h (1 Bft) SW 225 10 min 0,000 mm 274 W/m 3,3 C 6,9 C 16,1 km/h (3 Bft) 100 %
23.03.2014 11:40 6,9 C 6,9 C 6,9 C 79 % 1006,8 hPa 0,0 l/m 6,4 km/h (2 Bft) SW 225 10 min 0,000 mm 315 W/m 3,5 C 6,9 C 17,7 km/h (3 Bft) 100 %
23.03.2014 11:50 7,2 C 6,9 C 7,3 C 75 % 1006,7 hPa 0,0 l/m 4,8 km/h (1 Bft) W 270 10 min 0,000 mm 318 W/m 3,1 C 7,2 C 16,1 km/h (3 Bft) 100 %
23.03.2014 12:00 7,2 C 7,2 C 7,3 C 75 % 1006,7 hPa 0,0 l/m 8,0 km/h (2 Bft) W 270 10 min 0,127 mm 323 W/m 3,1 C 5,9 C 17,7 km/h (3 Bft) 100 %
23.03.2014 12:10 7,1 C 7,1 C 7,2 C 74 % 1006,6 hPa 0,0 l/m 8,0 km/h (2 Bft) W-SW 247 10 min 0,000 mm 269 W/m 2,8 C 5,8 C 17,7 km/h (3 Bft) 99 %
23.03.2014 12:20 7,1 C 7,1 C 7,2 C 73 % 1006,7 hPa 0,0 l/m 8,9 km/h (2 Bft) W 281 10 min 0,000 mm 250 W/m 2,6 C 5,1 C 19,3 km/h (3 Bft) 100 %
23.03.2014 12:30 7,2 C 7,1 C 7,2 C 74 % 1006,6 hPa 0,0 l/m 8,3 km/h (2 Bft) W 273 10 min 0,000 mm 220 W/m 2,9 C 5,7 C 17,7 km/h (3 Bft) 100 %
23.03.2014 12:40 7,1 C 7,1 C 7,3 C 73 % 1006,6 hPa 0,0 l/m 10,1 km/h (2 Bft) W-NW 303 10 min 0,000 mm 162 W/m 2,6 C 4,3 C 20,9 km/h (4 Bft) 100 %
23.03.2014 12:50 7,1 C 7,0 C 7,1 C 74 % 1006,7 hPa 0,0 l/m 8,5 km/h (2 Bft) NW 309 10 min 0,000 mm 195 W/m 2,8 C 5,4 C 17,7 km/h (3 Bft) 100 %
23.03.2014 13:00 7,2 C 7,1 C 7,2 C 72 % 1006,6 hPa 0,0 l/m 8,1 km/h (2 Bft) W-NW 297 10 min 0,103 mm 281 W/m 2,5 C 5,8 C 19,3 km/h (3 Bft) 100 %
23.03.2014 13:10 7,3 C 7,2 C 7,3 C 70 % 1006,5 hPa 0,0 l/m 8,9 km/h (2 Bft) W-SW 249 10 min 0,000 mm 258 W/m 2,2 C 5,4 C 22,5 km/h (4 Bft) 100 %
23.03.2014 13:20 7,5 C 7,3 C 7,5 C 71 % 1006,5 hPa 0,0 l/m 7,1 km/h (2 Bft) W-SW 253 10 min 0,000 mm 265 W/m 2,6 C 6,9 C 16,1 km/h (3 Bft) 99 %
23.03.2014 13:30 7,5 C 7,5 C 7,6 C 69 % 1006,5 hPa 0,0 l/m 9,6 km/h (2 Bft) W-SW 252 10 min 0,000 mm 202 W/m 2,2 C 5,1 C 20,9 km/h (4 Bft) 100 %
23.03.2014 13:40 7,4 C 7,4 C 7,5 C 69 % 1006,6 hPa 0,0 l/m 7,7 km/h (2 Bft) W-NW 287 10 min 0,000 mm 264 W/m 2,1 C 6,4 C 16,1 km/h (3 Bft) 100 %
23.03.2014 13:50 7,5 C 7,4 C 7,5 C 69 % 1006,5 hPa 0,0 l/m 8,2 km/h (2 Bft) W-SW 244 10 min 0,000 mm 246 W/m 2,2 C 6,1 C 20,9 km/h (4 Bft) 100 %
23.03.2014 14:00 7,7 C 7,5 C 7,7 C 68 % 1006,4 hPa 0,0 l/m 6,2 km/h (2 Bft) W-NW 294 10 min 0,127 mm 244 W/m 2,2 C 7,7 C 17,7 km/h (3 Bft) 100 %
23.03.2014 14:10 7,8 C 7,7 C 7,8 C 67 % 1006,4 hPa 0,0 l/m 5,3 km/h (1 Bft) W 271 10 min 0,000 mm 257 W/m 2,1 C 7,8 C 16,1 km/h (3 Bft) 99 %
23.03.2014 14:20 7,9 C 7,8 C 7,9 C 65 % 1006,3 hPa 0,0 l/m 6,4 km/h (2 Bft) W-SW 255 10 min 0,000 mm 316 W/m 1,7 C 7,9 C 19,3 km/h (3 Bft) 100 %
23.03.2014 14:30 8,2 C 7,9 C 8,2 C 65 % 1006,3 hPa 0,0 l/m 8,0 km/h (2 Bft) NW 305 10 min 0,000 mm 290 W/m 2,0 C 7,0 C 17,7 km/h (3 Bft) 100 %
23.03.2014 14:40 8,2 C 8,2 C 8,3 C 65 % 1006,2 hPa 0,0 l/m 7,3 km/h (2 Bft) W-NW 296 0 min 0,000 mm 127 W/m 2,0 C 7,5 C 19,3 km/h (3 Bft) 100 %
23.03.2014 14:50 7,9 C 7,9 C 8,2 C 67 % 1006,2 hPa 0,0 l/m 8,0 km/h (2 Bft) W-SW 250 0 min 0,000 mm 127 W/m 2,2 C 6,6 C 19,3 km/h (3 Bft) 100 %
23.03.2014 15:00 7,4 C 7,4 C 7,9 C 65 % 1006,3 hPa 0,0 l/m 9,9 km/h (2 Bft) W 263 0 min 0,127 mm 91 W/m 1,3 C 4,8 C 20,9 km/h (4 Bft) 99 %
23.03.2014 15:10 7,1 C 7,1 C 7,4 C 66 % 1006,4 hPa 0,0 l/m 6,8 km/h (2 Bft) W-SW 253 0 min 0,000 mm 84 W/m 1,2 C 6,8 C 16,1 km/h (3 Bft) 99 %
23.03.2014 15:20 7,1 C 7,1 C 7,1 C 66 % 1006,5 hPa 0,0 l/m 3,9 km/h (1 Bft) W 265 0 min 0,000 mm 111 W/m 1,2 C 7,1 C 11,3 km/h (2 Bft) 97 %
23.03.2014 15:30 7,3 C 7,1 C 7,3 C 68 % 1006,4 hPa 0,0 l/m 0,9 km/h (0 Bft) W 277 0 min 0,000 mm 144 W/m 1,8 C 7,3 C 8,0 km/h (2 Bft) 98 %
23.03.2014 15:40 7,6 C 7,3 C 7,6 C 67 % 1006,5 hPa 0,0 l/m 2,5 km/h (1 Bft) W-NW 284 0 min 0,000 mm 146 W/m 1,9 C 7,6 C 8,0 km/h (2 Bft) 97 %
23.03.2014 15:50 7,8 C 7,6 C 7,8 C 67 % 1006,5 hPa 0,0 l/m 3,0 km/h (1 Bft) W 265 10 min 0,000 mm 155 W/m 2,1 C 7,8 C 14,5 km/h (3 Bft) 97 %
23.03.2014 16:00 8,1 C 7,8 C 8,1 C 65 % 1006,5 hPa 0,0 l/m 3,0 km/h (1 Bft) W-SW 257 10 min 0,076 mm 167 W/m 1,9 C 8,1 C 11,3 km/h (2 Bft) 98 %
23.03.2014 16:10 8,2 C 8,1 C 8,2 C 62 % 1006,5 hPa 0,0 l/m 4,8 km/h (1 Bft) W 267 0 min 0,000 mm 146 W/m 1,4 C 8,2 C 14,5 km/h (3 Bft) 97 %
23.03.2014 16:20 8,3 C 8,2 C 8,3 C 63 % 1006,5 hPa 0,0 l/m 1,1 km/h (1 Bft) W-NW 300 0 min 0,000 mm 134 W/m 1,7 C 8,3 C 6,4 km/h (2 Bft) 98 %
23.03.2014 16:30 8,4 C 8,3 C 8,4 C 62 % 1006,5 hPa 0,0 l/m 1,9 km/h (1 Bft) NW 308 0 min 0,000 mm 114 W/m 1,6 C 8,4 C 9,7 km/h (2 Bft) 97 %
23.03.2014 16:40 8,4 C 8,4 C 8,5 C 62 % 1006,5 hPa 0,0 l/m 1,5 km/h (1 Bft) W-SW 246 0 min 0,000 mm 93 W/m 1,6 C 8,4 C 9,7 km/h (2 Bft) 97 %
23.03.2014 16:50 8,4 C 8,4 C 8,5 C 59 % 1006,4 hPa 0,0 l/m 5,7 km/h (1 Bft) NW 312 0 min 0,000 mm 100 W/m 0,9 C 8,4 C 16,1 km/h (3 Bft) 97 %
23.03.2014 17:00 8,4 C 8,4 C 8,4 C 61 % 1006,5 hPa 0,0 l/m 2,7 km/h (1 Bft) W-NW 296 0 min 0,076 mm 97 W/m 1,3 C 8,4 C 9,7 km/h (2 Bft) 98 %
23.03.2014 17:10 8,4 C 8,4 C 8,5 C 59 % 1006,6 hPa 0,0 l/m 3,8 km/h (1 Bft) W-NW 294 0 min 0,000 mm 84 W/m 0,9 C 8,4 C 11,3 km/h (2 Bft) 97 %
23.03.2014 17:20 8,2 C 8,2 C 8,4 C 59 % 1006,7 hPa 0,0 l/m 4,2 km/h (1 Bft) W 277 0 min 0,000 mm 60 W/m 0,7 C 8,2 C 14,5 km/h (3 Bft) 97 %
23.03.2014 17:30 8,0 C 8,0 C 8,2 C 61 % 1006,9 hPa 0,0 l/m 3,8 km/h (1 Bft) W-NW 300 0 min 0,000 mm 32 W/m 0,9 C 8,0 C 14,5 km/h (3 Bft) 97 %
23.03.2014 17:40 7,9 C 7,9 C 8,0 C 62 % 1006,8 hPa 0,0 l/m 0,0 km/h (0 Bft) NW 316 0 min 0,000 mm 0 W/m 1,1 C 7,9 C 3,2 km/h (1 Bft) 97 %
23.03.2014 17:50 7,7 C 7,7 C 7,9 C 62 % 1007,0 hPa 0,0 l/m 1,8 km/h (1 Bft) W 261 0 min 0,000 mm 0 W/m 0,9 C 7,7 C 8,0 km/h (2 Bft) 97 %
23.03.2014 18:00 7,6 C 7,6 C 7,7 C 62 % 1007,0 hPa 0,0 l/m 0,6 km/h (0 Bft) W-NW 298 0 min 0,026 mm 0 W/m 0,8 C 7,6 C 6,4 km/h (2 Bft) 98 %
23.03.2014 18:10 7,4 C 7,4 C 7,6 C 65 % 1007,1 hPa 0,0 l/m 0,0 km/h (0 Bft) W-SW 246 0 min 0,000 mm 0 W/m 1,3 C 7,4 C 1,6 km/h (1 Bft) 97 %
23.03.2014 18:20 7,1 C 7,1 C 7,4 C 68 % 1007,1 hPa 0,0 l/m 2,7 km/h (1 Bft) SW 230 0 min 0,000 mm 0 W/m 1,6 C 7,1 C 11,3 km/h (2 Bft) 89 %
23.03.2014 18:30 6,8 C 6,8 C 7,1 C 69 % 1007,1 hPa 0,0 l/m 0,3 km/h (0 Bft) SW 234 0 min 0,000 mm 0 W/m 1,5 C 6,8 C 4,8 km/h (1 Bft) 98 %
23.03.2014 18:40 6,7 C 6,7 C 6,8 C 71 % 1007,1 hPa 0,0 l/m 0,3 km/h (0 Bft) W-SW 246 0 min 0,000 mm 0 W/m 1,8 C 6,7 C 4,8 km/h (1 Bft) 97 %
23.03.2014 18:50 6,4 C 6,4 C 6,7 C 71 % 1007,3 hPa 0,0 l/m 0,2 km/h (0 Bft) W-SW 246 0 min 0,000 mm 0 W/m 1,5 C 6,4 C 3,2 km/h (1 Bft) 96 %
23.03.2014 19:00 6,3 C 6,3 C 6,4 C 70 % 1007,3 hPa 0,0 l/m 0,3 km/h (0 Bft) W-SW 252 0 min 0,025 mm 0 W/m 1,2 C 6,3 C 4,8 km/h (1 Bft) 97 %
23.03.2014 19:10 6,2 C 6,2 C 6,3 C 70 % 1007,3 hPa 0,0 l/m 0,1 km/h (0 Bft) W 281 0 min 0,000 mm 0 W/m 1,1 C 6,2 C 4,8 km/h (1 Bft) 98 %
23.03.2014 19:20 6,1 C 6,1 C 6,2 C 72 % 1007,5 hPa 0,0 l/m 0,3 km/h (0 Bft) W 281 0 min 0,000 mm 0 W/m 1,4 C 6,1 C 3,2 km/h (1 Bft) 97 %
23.03.2014 19:30 6,0 C 6,0 C 6,1 C 72 % 1007,4 hPa 0,0 l/m 0,4 km/h (0 Bft) NW 306 0 min 0,000 mm 0 W/m 1,3 C 6,0 C 3,2 km/h (1 Bft) 98 %
23.03.2014 19:40 5,9 C 5,9 C 6,0 C 72 % 1007,4 hPa 0,0 l/m 1,8 km/h (1 Bft) W-NW 301 0 min 0,000 mm 0 W/m 1,2 C 5,9 C 8,0 km/h (2 Bft) 97 %
23.03.2014 19:50 5,9 C 5,9 C 5,9 C 73 % 1007,5 hPa 0,0 l/m 0,0 km/h (0 Bft) NW 313 0 min 0,000 mm 0 W/m 1,4 C 5,9 C 1,6 km/h (1 Bft) 97 %
23.03.2014 20:00 5,9 C 5,9 C 5,9 C 73 % 1007,5 hPa 0,0 l/m 0,2 km/h (0 Bft) NW 312 0 min 0,025 mm 0 W/m 1,4 C 5,9 C 3,2 km/h (1 Bft) 98 %
23.03.2014 20:10 5,8 C 5,8 C 5,9 C 73 % 1007,6 hPa 0,0 l/m 0,6 km/h (0 Bft) NW 313 0 min 0,000 mm 0 W/m 1,3 C 5,8 C 4,8 km/h (1 Bft) 97 %
23.03.2014 20:20 5,8 C 5,8 C 5,8 C 74 % 1007,9 hPa 0,0 l/m 0,0 km/h (0 Bft) NW 313 0 min 0,000 mm 0 W/m 1,5 C 5,8 C 1,6 km/h (1 Bft) 98 %
23.03.2014 20:30 5,6 C 5,6 C 5,8 C 75 % 1008,1 hPa 0,0 l/m 0,0 km/h (0 Bft) NW 313 0 min 0,000 mm 0 W/m 1,5 C 5,6 C 0,0 km/h (0 Bft) 97 %
23.03.2014 20:40 5,4 C 5,4 C 5,6 C 74 % 1008,1 hPa 0,0 l/m 0,0 km/h (0 Bft) NW 313 0 min 0,000 mm 0 W/m 1,1 C 5,4 C 0,0 km/h (0 Bft) 99 %
23.03.2014 20:50 5,4 C 5,4 C 5,4 C 75 % 1008,1 hPa 0,0 l/m 0,0 km/h (0 Bft) NW 313 0 min 0,000 mm 0 W/m 1,3 C 5,4 C 0,0 km/h (0 Bft) 99 %
23.03.2014 21:00 5,4 C 5,4 C 5,4 C 75 % 1008,1 hPa 0,0 l/m 0,0 km/h (0 Bft) NW 313 0 min 0,026 mm 0 W/m 1,3 C 5,4 C 0,0 km/h (0 Bft) 100 %
23.03.2014 21:10 5,3 C 5,3 C 5,4 C 75 % 1008,1 hPa 0,0 l/m 0,0 km/h (0 Bft) N 0 0 min 0,000 mm 0 W/m 1,2 C 5,3 C 0,0 km/h (0 Bft) 100 %
23.03.2014 21:20 5,2 C 5,2 C 5,3 C 76 % 1008,2 hPa 0,0 l/m 0,0 km/h (0 Bft) N 0 0 min 0,000 mm 0 W/m 1,3 C 5,2 C 0,0 km/h (0 Bft) 100 %
23.03.2014 21:30 5,1 C 5,0 C 5,2 C 76 % 1008,4 hPa 0,0 l/m 0,0 km/h (0 Bft) N 0 0 min 0,000 mm 0 W/m 1,2 C 5,1 C 0,0 km/h (0 Bft) 100 %
23.03.2014 21:40 4,9 C 4,8 C 5,0 C 78 % 1008,5 hPa 0,0 l/m 0,0 km/h (0 Bft) N 0 0 min 0,000 mm 0 W/m 1,4 C 4,9 C 0,0 km/h (0 Bft) 100 %
23.03.2014 21:50 4,6 C 4,6 C 4,9 C 78 % 1008,4 hPa 0,0 l/m 0,0 km/h (0 Bft) N 0 0 min 0,000 mm 0 W/m 1,1 C 4,6 C 0,0 km/h (0 Bft) 100 %
23.03.2014 22:00 4,3 C 4,3 C 4,6 C 78 % 1008,5 hPa 0,0 l/m 0,0 km/h (0 Bft) N 0 0 min 0,025 mm 0 W/m 0,8 C 4,3 C 0,0 km/h (0 Bft) 100 %
23.03.2014 22:10 4,1 C 4,1 C 4,3 C 78 % 1008,4 hPa 0,0 l/m 0,0 km/h (0 Bft) N 0 0 min 0,000 mm 0 W/m 0,6 C 4,1 C 0,0 km/h (0 Bft) 100 %
23.03.2014 22:20 3,9 C 3,9 C 4,1 C 78 % 1008,6 hPa 0,0 l/m 0,0 km/h (0 Bft) N 0 0 min 0,000 mm 0 W/m 0,4 C 3,9 C 0,0 km/h (0 Bft) 100 %
23.03.2014 22:30 3,7 C 3,7 C 3,9 C 78 % 1008,6 hPa 0,0 l/m 0,0 km/h (0 Bft) NW 315 0 min 0,000 mm 0 W/m 0,2 C 3,7 C 1,6 km/h (1 Bft) 100 %
23.03.2014 22:40 3,6 C 3,6 C 3,7 C 78 % 1008,7 hPa 0,0 l/m 0,0 km/h (0 Bft) N 0 0 min 0,000 mm 0 W/m 0,1 C 3,6 C 0,0 km/h (0 Bft) 100 %
23.03.2014 22:50 3,4 C 3,4 C 3,6 C 79 % 1008,8 hPa 0,0 l/m 0,0 km/h (0 Bft) N 0 0 min 0,000 mm 0 W/m 0,1 C 3,4 C 0,0 km/h (0 Bft) 100 %
23.03.2014 23:00 3,3 C 3,3 C 3,4 C 79 % 1008,8 hPa 0,0 l/m 0,0 km/h (0 Bft) N 0 0 min 0,000 mm 0 W/m 0,0 C 3,3 C 0,0 km/h (0 Bft) 100 %
23.03.2014 23:10 3,3 C 3,3 C 3,3 C 81 % 1008,9 hPa 0,0 l/m 0,0 km/h (0 Bft) NW 315 0 min 0,000 mm 0 W/m 0,4 C 3,3 C 1,6 km/h (1 Bft) 100 %
23.03.2014 23:20 3,0 C 3,0 C 3,3 C 81 % 1008,8 hPa 0,0 l/m 0,0 km/h (0 Bft) N 0 0 min 0,000 mm 0 W/m 0,1 C 3,0 C 0,0 km/h (0 Bft) 90 %
23.03.2014 23:30 2,8 C 2,8 C 3,0 C 82 % 1009,0 hPa 0,0 l/m 0,0 km/h (0 Bft) N 0 0 min 0,000 mm 0 W/m 0,0 C 2,8 C 0,0 km/h (0 Bft) 100 %
23.03.2014 23:40 2,6 C 2,6 C 2,8 C 82 % 1009,0 hPa 0,0 l/m 0,0 km/h (0 Bft) N 0 0 min 0,000 mm 0 W/m -0,2 C 2,6 C 0,0 km/h (0 Bft) 100 %
23.03.2014 23:50 2,6 C 2,6 C 2,7 C 83 % 1009,0 hPa 0,0 l/m 0,0 km/h (0 Bft) N 0 0 min 0,000 mm 0 W/m 0,0 C 2,6 C 0,0 km/h (0 Bft) 100 %
_ Min-Zeit 23:40 23:40 23:50 16:50 05:30 - 01:10 - - - - - 23:40 23:40 04:20 18:20
Minimum _ 2,6 C 2,6 C 2,7 C 59 % 1005,6 hPa - 0,0 km/h (0 Bft) - - - - - -0,2 C 2,6 C 0,0 km/h (0 Bft) 89 %
_ Max-Zeit 16:40 16:40 16:40 02:10 23:30 00:00 12:40 - - 10:00 12:00 12:00 00:00 16:30 13:10 00:00
Maximum _ 8,5 C 8,4 C 8,5 C 88 % 1009,0 hPa 0,0 l/m 10,1 km/h
W-NW (2 Bft)
- - 10 min 0,127 mm 323 W/m 3,9 C 8,4 C 22,5 km/h
W-SW (4 Bft)
100 %
Durchschnitt _ 5,9 C 5,9 C 6,0 C 78 % 1006,7 hPa #0,0 l/m 2,5 km/h (1 Bft) W - #5:00 h #0,965 mm 165 W/m 2,3 C 5,7 C 8,4 km/h (2 Bft) 99 %
PRIVATE WETTERSTATION BILLIGHEIM-ALLFELD - www.neckar-odenwald-wetter.de - Holger Sonntag